VXP305 KHVN-KSRQ

Flight info

Callsign VXP305
Flight time 2h 27m
Altitude 36000
Route BEADS EMJAY Q167 ZJAAY Q97 SAWED Q64 GUILD Q409 PUPYY KYYUU LUBBR4
Aircraft B738/M-SDE2E3FGHIRWXY/LB1

Departure

Time 2026-04-23 05:29
Airport Tweed New Haven Airport (KHVN)

Arrival

Time 2026-04-23 07:56
Airport Sarasota Bradenton International Airport (KSRQ)
Time Latitude Longitude Altitude Speed Heading
2026-04-23 04:57 41.26917 -72.89007 16 ft 0 kts 311°
2026-04-23 05:21 41.26915 -72.89004 16 ft 3 kts 311°
2026-04-23 05:21 41.26898 -72.88978 19 ft 4 kts 311°
2026-04-23 05:21 41.26883 -72.88955 18 ft 4 kts 316°
2026-04-23 05:22 41.26862 -72.88940 16 ft 4 kts
2026-04-23 05:22 41.26840 -72.88954 17 ft 4 kts 40°
2026-04-23 05:22 41.26830 -72.88966 19 ft 0 kts 41°
2026-04-23 05:24 41.26832 -72.88964 16 ft 2 kts 41°
2026-04-23 05:25 41.26851 -72.88940 16 ft 5 kts 41°
2026-04-23 05:25 41.26878 -72.88914 15 ft 5 kts 24°
2026-04-23 05:25 41.26911 -72.88909 16 ft 5 kts
2026-04-23 05:25 41.26944 -72.88906 16 ft 5 kts
2026-04-23 05:26 41.26976 -72.88901 16 ft 5 kts
2026-04-23 05:26 41.27007 -72.88891 16 ft 5 kts 20°
2026-04-23 05:26 41.27034 -72.88871 16 ft 4 kts 36°
2026-04-23 05:26 41.27057 -72.88844 17 ft 4 kts 41°
2026-04-23 05:27 41.27080 -72.88818 18 ft 5 kts 41°
2026-04-23 05:27 41.27108 -72.88786 16 ft 6 kts 41°
2026-04-23 05:27 41.27132 -72.88740 19 ft 6 kts 87°
2026-04-23 05:27 41.27108 -72.88721 16 ft 1 kts 184°
2026-04-23 05:28 41.27107 -72.88721 16 ft 0 kts 184°
2026-04-23 05:28 41.27022 -72.88728 16 ft 47 kts 184°
2026-04-23 05:28 41.26400 -72.88771 15 ft 128 kts 183°
2026-04-23 05:28 41.25283 -72.88854 180 ft 179 kts 183°
2026-04-23 05:29 41.24019 -72.88952 1112 ft 186 kts 184°
2026-04-23 05:29 41.22778 -72.89065 2218 ft 183 kts 188°
2026-04-23 05:29 41.21409 -72.89243 2622 ft 212 kts 188°
2026-04-23 05:29 41.19882 -72.88844 2803 ft 240 kts 154°
2026-04-23 05:30 41.18397 -72.87687 3226 ft 253 kts 150°
2026-04-23 05:30 41.16831 -72.86444 3570 ft 273 kts 151°
2026-04-23 05:30 41.15161 -72.85138 4229 ft 281 kts 151°
2026-04-23 05:30 41.13461 -72.83828 5064 ft 284 kts 151°
2026-04-23 05:31 41.11724 -72.82506 5863 ft 288 kts 152°
2026-04-23 05:31 41.09985 -72.81194 6636 ft 292 kts 152°
2026-04-23 05:31 41.08198 -72.79857 7378 ft 297 kts 153°
2026-04-23 05:31 41.06382 -72.78505 8112 ft 301 kts 153°
2026-04-23 05:32 41.04558 -72.77150 8849 ft 305 kts 154°
2026-04-23 05:32 41.02679 -72.75759 9572 ft 310 kts 154°
2026-04-23 05:32 41.00772 -72.74349 10226 ft 316 kts 154°
2026-04-23 05:32 40.98808 -72.72903 10453 ft 338 kts 154°
2026-04-23 05:33 40.96678 -72.71337 10645 ft 360 kts 154°
2026-04-23 05:33 40.94457 -72.69701 11003 ft 373 kts 154°
2026-04-23 05:33 40.92154 -72.68002 11610 ft 380 kts 154°
2026-04-23 05:33 40.89828 -72.66286 12284 ft 383 kts 154°
2026-04-23 05:34 40.87500 -72.64571 12872 ft 389 kts 154°
2026-04-23 05:34 40.85103 -72.62808 13480 ft 395 kts 154°
2026-04-23 05:34 40.82679 -72.61027 14050 ft 400 kts 154°
2026-04-23 05:34 40.80245 -72.59243 14592 ft 406 kts 154°
2026-04-23 05:35 40.77733 -72.57492 15135 ft 409 kts 161°
2026-04-23 05:35 40.74983 -72.56693 15637 ft 402 kts 184°
2026-04-23 05:35 40.72247 -72.57145 16177 ft 393 kts 203°
2026-04-23 05:35 40.69771 -72.58554 16671 ft 384 kts 221°
2026-04-23 05:36 40.68361 -72.59936 17012 ft 380 kts 228°
2026-04-23 05:36 40.66340 -72.62200 17531 ft 383 kts 229°
2026-04-23 05:36 40.63659 -72.65303 18198 ft 390 kts 230°
2026-04-23 05:36 40.62291 -72.66889 18519 ft 393 kts 230°
2026-04-23 05:37 40.60217 -72.69279 19041 ft 395 kts 230°
2026-04-23 05:37 40.58154 -72.71635 19595 ft 396 kts 229°
2026-04-23 05:37 40.56052 -72.74019 20147 ft 398 kts 229°
2026-04-23 05:37 40.53967 -72.76374 20651 ft 400 kts 229°
2026-04-23 05:38 40.51823 -72.78790 21159 ft 402 kts 229°
2026-04-23 05:38 40.49719 -72.81156 21651 ft 404 kts 229°
2026-04-23 05:38 40.47576 -72.83562 22153 ft 406 kts 229°
2026-04-23 05:38 40.45419 -72.85982 22635 ft 408 kts 229°
2026-04-23 05:39 40.43247 -72.88416 23105 ft 410 kts 229°
2026-04-23 05:39 40.41087 -72.90836 23567 ft 412 kts 229°
2026-04-23 05:39 40.38895 -72.93289 23940 ft 415 kts 229°
2026-04-23 05:39 40.36681 -72.95766 24270 ft 418 kts 229°
2026-04-23 05:40 40.34470 -72.98237 24575 ft 422 kts 229°
2026-04-23 05:40 40.32218 -73.00752 24889 ft 426 kts 229°
2026-04-23 05:40 40.29940 -73.03292 25207 ft 429 kts 229°
2026-04-23 05:40 40.27684 -73.05805 25537 ft 431 kts 229°
2026-04-23 05:41 40.25376 -73.08373 25883 ft 434 kts 229°
2026-04-23 05:41 40.23066 -73.10940 26214 ft 436 kts 229°
2026-04-23 05:41 40.20772 -73.13489 26511 ft 439 kts 229°
2026-04-23 05:41 40.18421 -73.16099 26811 ft 442 kts 229°
2026-04-23 05:42 40.16061 -73.18717 27110 ft 445 kts 229°
2026-04-23 05:42 40.13718 -73.21312 27396 ft 447 kts 229°
2026-04-23 05:42 40.11318 -73.23970 27688 ft 450 kts 229°
2026-04-23 05:42 40.08937 -73.26603 27952 ft 453 kts 229°
2026-04-23 05:43 40.06552 -73.29263 28216 ft 455 kts 229°
2026-04-23 05:43 40.04136 -73.31975 28486 ft 457 kts 229°
2026-04-23 05:43 40.01716 -73.34695 28737 ft 460 kts 229°
2026-04-23 05:43 39.99274 -73.37435 29016 ft 462 kts 229°
2026-04-23 05:44 39.96829 -73.40174 29273 ft 465 kts 229°
2026-04-23 05:44 39.94372 -73.42919 29520 ft 467 kts 229°
2026-04-23 05:44 39.91918 -73.45660 29753 ft 470 kts 229°
2026-04-23 05:44 39.89415 -73.48450 29988 ft 472 kts 229°
2026-04-23 05:45 39.86939 -73.51208 30211 ft 474 kts 229°
2026-04-23 05:45 39.84436 -73.53992 30512 ft 473 kts 229°
2026-04-23 05:45 39.81936 -73.56767 30873 ft 471 kts 229°
2026-04-23 05:45 39.79444 -73.59532 31221 ft 469 kts 229°
2026-04-23 05:46 39.76979 -73.62266 31510 ft 469 kts 229°
2026-04-23 05:46 39.74492 -73.65025 31808 ft 468 kts 229°
2026-04-23 05:46 39.72009 -73.67777 32110 ft 467 kts 229°
2026-04-23 05:46 39.69559 -73.70488 32415 ft 466 kts 229°
2026-04-23 05:47 39.67089 -73.73220 32706 ft 466 kts 229°
2026-04-23 05:47 39.64607 -73.75962 33001 ft 465 kts 229°
2026-04-23 05:47 39.62147 -73.78677 33289 ft 464 kts 229°
2026-04-23 05:47 39.59704 -73.81371 33573 ft 463 kts 229°
2026-04-23 05:48 39.57236 -73.84091 33845 ft 462 kts 229°
2026-04-23 05:48 39.54803 -73.86769 34106 ft 462 kts 229°
2026-04-23 05:48 39.52369 -73.89445 34339 ft 461 kts 229°
2026-04-23 05:48 39.49925 -73.92130 34563 ft 460 kts 229°
2026-04-23 05:49 39.47478 -73.94817 34778 ft 460 kts 229°
2026-04-23 05:49 39.45037 -73.97495 35002 ft 459 kts 229°
2026-04-23 05:49 39.42615 -74.00148 35204 ft 458 kts 229°
2026-04-23 05:49 39.40170 -74.02824 35428 ft 458 kts 229°
2026-04-23 05:50 39.37732 -74.05492 35623 ft 457 kts 229°
2026-04-23 05:50 39.35324 -74.08127 35818 ft 457 kts 229°
2026-04-23 05:50 39.32882 -74.10798 36000 ft 457 kts 229°
2026-04-23 05:51 39.28010 -74.16124 36015 ft 459 kts 229°
2026-04-23 05:51 39.23161 -74.21409 36010 ft 456 kts 229°
2026-04-23 05:52 39.18341 -74.26653 36003 ft 454 kts 228°
2026-04-23 05:52 39.13513 -74.31898 36004 ft 452 kts 228°
2026-04-23 05:53 39.08708 -74.37110 36010 ft 451 kts 228°
2026-04-23 05:53 39.03911 -74.42305 36016 ft 452 kts 228°
2026-04-23 05:54 38.99061 -74.47548 36014 ft 454 kts 228°
2026-04-23 05:54 38.94236 -74.52753 36011 ft 456 kts 228°
2026-04-23 05:55 38.89484 -74.58182 36012 ft 456 kts 231°
2026-04-23 05:55 38.84847 -74.63701 36014 ft 458 kts 231°
2026-04-23 05:56 38.80125 -74.69248 36008 ft 460 kts 230°
2026-04-23 05:56 38.75375 -74.74778 36004 ft 461 kts 230°
2026-04-23 05:57 38.70436 -74.80095 36004 ft 465 kts 226°
2026-04-23 05:57 38.65406 -74.85240 35998 ft 465 kts 226°
2026-04-23 05:58 38.60377 -74.90432 35997 ft 463 kts 226°
2026-04-23 05:58 38.55385 -74.95623 35999 ft 462 kts 226°
2026-04-23 05:59 38.50450 -75.00854 36003 ft 458 kts 229°
2026-04-23 05:59 38.45649 -75.06191 36014 ft 459 kts 226°
2026-04-23 06:00 38.40578 -75.11098 36028 ft 460 kts 223°
2026-04-23 06:00 38.35392 -75.15906 36022 ft 459 kts 223°
2026-04-23 06:01 38.30248 -75.20733 36016 ft 458 kts 223°
2026-04-23 06:01 38.25154 -75.25556 36015 ft 458 kts 223°
2026-04-23 06:02 38.20039 -75.30400 36023 ft 458 kts 223°
2026-04-23 06:02 38.14907 -75.35249 36008 ft 458 kts 223°
2026-04-23 06:03 38.09814 -75.40050 36020 ft 459 kts 223°
2026-04-23 06:03 38.04667 -75.44889 36025 ft 460 kts 222°
2026-04-23 06:04 37.99383 -75.49527 36029 ft 462 kts 220°
2026-04-23 06:04 37.94071 -75.54063 36022 ft 463 kts 220°
2026-04-23 06:05 37.88754 -75.58654 36028 ft 462 kts 220°
2026-04-23 06:05 37.83413 -75.63247 36022 ft 464 kts 218°
2026-04-23 06:06 37.77914 -75.67468 36039 ft 465 kts 216°
2026-04-23 06:06 37.72309 -75.71606 36038 ft 465 kts 216°
2026-04-23 06:07 37.66765 -75.75750 36036 ft 464 kts 216°
2026-04-23 06:07 37.61231 -75.79917 36037 ft 463 kts 216°
2026-04-23 06:08 37.55687 -75.84083 36030 ft 462 kts 216°
2026-04-23 06:08 37.50615 -75.88827 36044 ft 451 kts 228°
2026-04-23 06:09 37.46036 -75.94235 36029 ft 450 kts 229°
2026-04-23 06:09 37.41480 -75.99631 36021 ft 449 kts 229°
2026-04-23 06:10 37.36902 -76.04985 36020 ft 449 kts 228°
2026-04-23 06:10 37.32334 -76.10284 36027 ft 448 kts 228°
2026-04-23 06:11 37.27750 -76.15586 36031 ft 448 kts 228°
2026-04-23 06:11 37.23153 -76.20893 36032 ft 448 kts 228°
2026-04-23 06:12 37.18560 -76.26188 36035 ft 449 kts 228°
2026-04-23 06:12 37.11688 -76.34095 36037 ft 449 kts 227°
2026-04-23 06:13 37.07078 -76.39388 36036 ft 450 kts 227°
2026-04-23 06:13 37.02463 -76.44678 36036 ft 450 kts 227°
2026-04-23 06:14 36.97854 -76.49950 36038 ft 450 kts 227°
2026-04-23 06:14 36.93208 -76.55256 36059 ft 451 kts 227°
2026-04-23 06:15 36.88592 -76.60519 36061 ft 451 kts 227°
2026-04-23 06:15 36.83942 -76.65812 36066 ft 451 kts 227°
2026-04-23 06:16 36.79311 -76.71073 36076 ft 451 kts 227°
2026-04-23 06:16 36.74666 -76.76342 36072 ft 451 kts 227°
2026-04-23 06:17 36.70016 -76.81607 36073 ft 451 kts 227°
2026-04-23 06:17 36.65394 -76.86833 36072 ft 451 kts 227°
2026-04-23 06:18 36.60742 -76.92082 36074 ft 450 kts 227°
2026-04-23 06:18 36.56099 -76.97314 36067 ft 450 kts 226°
2026-04-23 06:19 36.51480 -77.02509 36069 ft 450 kts 226°
2026-04-23 06:19 36.46836 -77.07724 36084 ft 449 kts 226°
2026-04-23 06:20 36.42186 -77.12937 36085 ft 449 kts 226°
2026-04-23 06:20 36.37536 -77.18142 36091 ft 449 kts 226°
2026-04-23 06:21 36.32903 -77.23320 36091 ft 449 kts 226°
2026-04-23 06:21 36.28127 -77.28356 36085 ft 452 kts 223°
2026-04-23 06:22 36.23189 -77.33108 36080 ft 453 kts 222°
2026-04-23 06:22 36.18180 -77.37893 36078 ft 453 kts 222°
2026-04-23 06:23 36.13209 -77.42685 36089 ft 454 kts 222°
2026-04-23 06:23 36.08267 -77.47470 36103 ft 454 kts 222°
2026-04-23 06:24 36.03264 -77.52313 36094 ft 455 kts 222°
2026-04-23 06:24 35.98282 -77.57127 36096 ft 456 kts 222°
2026-04-23 06:25 35.93301 -77.61931 36097 ft 456 kts 222°
2026-04-23 06:25 35.89129 -77.65948 36107 ft 457 kts 222°
2026-04-23 06:26 35.84094 -77.70788 36099 ft 457 kts 222°
2026-04-23 06:26 35.79102 -77.75580 36100 ft 458 kts 222°
2026-04-23 06:27 35.74058 -77.80412 36103 ft 458 kts 222°
2026-04-23 06:27 35.69037 -77.85216 36097 ft 458 kts 222°
2026-04-23 06:28 35.63988 -77.90037 36105 ft 458 kts 222°
2026-04-23 06:28 35.58944 -77.94848 36105 ft 458 kts 222°
2026-04-23 06:29 35.53939 -77.99612 36109 ft 458 kts 222°
2026-04-23 06:29 35.48892 -78.04409 36111 ft 457 kts 221°
2026-04-23 06:30 35.43873 -78.09171 36107 ft 457 kts 221°
2026-04-23 06:30 35.38858 -78.13923 36101 ft 456 kts 221°
2026-04-23 06:31 35.33832 -78.18679 36101 ft 456 kts 221°
2026-04-23 06:31 35.28811 -78.23421 36105 ft 456 kts 221°
2026-04-23 06:32 35.23785 -78.28157 36109 ft 455 kts 221°
2026-04-23 06:32 35.18792 -78.32856 36116 ft 455 kts 221°
2026-04-23 06:33 35.13755 -78.37591 36115 ft 455 kts 221°
2026-04-23 06:33 35.08730 -78.42308 36113 ft 455 kts 221°
2026-04-23 06:34 35.03718 -78.47005 36119 ft 455 kts 221°
2026-04-23 06:34 34.98708 -78.51692 36118 ft 455 kts 221°
2026-04-23 06:35 34.93668 -78.56400 36116 ft 455 kts 221°
2026-04-23 06:35 34.88638 -78.61092 36115 ft 455 kts 221°
2026-04-23 06:36 34.83633 -78.65753 36113 ft 455 kts 221°
2026-04-23 06:36 34.78595 -78.70437 36115 ft 455 kts 221°
2026-04-23 06:37 34.73551 -78.75119 36126 ft 454 kts 221°
2026-04-23 06:37 34.68556 -78.79750 36115 ft 454 kts 220°
2026-04-23 06:38 34.63515 -78.84415 36112 ft 454 kts 220°
2026-04-23 06:38 34.58514 -78.89037 36128 ft 453 kts 220°
2026-04-23 06:39 34.53508 -78.93657 36125 ft 453 kts 220°
2026-04-23 06:39 34.48502 -78.98272 36126 ft 452 kts 220°
2026-04-23 06:40 34.43489 -79.02906 36125 ft 452 kts 220°
2026-04-23 06:40 34.38406 -79.07345 36128 ft 453 kts 218°
2026-04-23 06:41 34.33207 -79.11729 36134 ft 453 kts 218°
2026-04-23 06:41 34.28092 -79.16092 36135 ft 453 kts 218°
2026-04-23 06:42 34.23047 -79.20652 36133 ft 451 kts 222°
2026-04-23 06:42 34.18217 -79.25460 36140 ft 451 kts 223°
2026-04-23 06:43 34.13356 -79.30313 36137 ft 452 kts 223°
2026-04-23 06:43 34.08501 -79.35098 36137 ft 453 kts 222°
2026-04-23 06:44 34.03620 -79.39879 36133 ft 454 kts 222°
2026-04-23 06:44 33.98693 -79.44695 36140 ft 454 kts 222°
2026-04-23 06:45 33.93792 -79.49482 36141 ft 455 kts 222°
2026-04-23 06:45 33.88908 -79.54247 36150 ft 455 kts 222°
2026-04-23 06:46 33.83959 -79.59016 36150 ft 456 kts 221°
2026-04-23 06:46 33.78932 -79.63697 36152 ft 456 kts 220°
2026-04-23 06:47 33.73902 -79.68355 36156 ft 456 kts 220°
2026-04-23 06:47 33.68898 -79.73000 36150 ft 456 kts 220°
2026-04-23 06:48 33.63873 -79.77670 36157 ft 456 kts 220°
2026-04-23 06:48 33.58884 -79.82303 36151 ft 455 kts 220°
2026-04-23 06:49 33.53875 -79.86948 36157 ft 455 kts 220°
2026-04-23 06:49 33.48856 -79.91593 36158 ft 454 kts 220°
2026-04-23 06:50 33.43869 -79.96203 36155 ft 454 kts 220°
2026-04-23 06:50 33.38861 -80.00824 36153 ft 453 kts 220°
2026-04-23 06:51 33.33879 -80.05415 36155 ft 453 kts 220°
2026-04-23 06:51 33.28874 -80.10021 36157 ft 452 kts 220°
2026-04-23 06:52 33.23903 -80.14589 36156 ft 452 kts 220°
2026-04-23 06:52 33.18920 -80.19160 36160 ft 452 kts 220°
2026-04-23 06:53 33.13909 -80.23750 36144 ft 453 kts 220°
2026-04-23 06:53 33.08911 -80.28323 36145 ft 453 kts 220°
2026-04-23 06:54 33.03926 -80.32876 36148 ft 453 kts 220°
2026-04-23 06:54 32.98926 -80.37436 36149 ft 453 kts 220°
2026-04-23 06:55 32.93896 -80.42017 36152 ft 453 kts 220°
2026-04-23 06:55 32.88889 -80.46571 36173 ft 453 kts 220°
2026-04-23 06:56 32.83891 -80.51109 36173 ft 453 kts 220°
2026-04-23 06:56 32.78883 -80.55652 36175 ft 452 kts 220°
2026-04-23 06:57 32.73884 -80.60180 36174 ft 452 kts 220°
2026-04-23 06:57 32.68893 -80.64718 36171 ft 451 kts 220°
2026-04-23 06:58 32.63979 -80.69301 36172 ft 451 kts 221°
2026-04-23 06:58 32.59067 -80.73894 36168 ft 450 kts 220°
2026-04-23 06:59 32.54143 -80.78478 36170 ft 450 kts 220°
2026-04-23 06:59 32.49219 -80.83048 36175 ft 449 kts 220°
2026-04-23 07:00 32.44280 -80.87624 36177 ft 449 kts 220°
2026-04-23 07:00 32.39379 -80.92160 36174 ft 449 kts 220°
2026-04-23 07:01 32.34447 -80.96718 36173 ft 449 kts 220°
2026-04-23 07:01 32.29527 -81.01258 36177 ft 449 kts 220°
2026-04-23 07:02 32.24266 -81.05203 36182 ft 451 kts 211°
2026-04-23 07:02 32.18754 -81.08797 36177 ft 451 kts 211°
2026-04-23 07:03 32.13262 -81.12409 36175 ft 452 kts 211°
2026-04-23 07:03 32.07787 -81.16054 36176 ft 452 kts 212°
2026-04-23 07:04 32.02334 -81.19689 36155 ft 452 kts 212°
2026-04-23 07:04 31.96890 -81.23349 36153 ft 451 kts 215°
2026-04-23 07:05 31.92043 -81.28012 36164 ft 448 kts 225°
2026-04-23 07:05 31.87483 -81.32939 36182 ft 448 kts 225°
2026-04-23 07:06 31.82848 -81.37902 36181 ft 448 kts 224°
2026-04-23 07:06 31.78241 -81.42776 36184 ft 448 kts 224°
2026-04-23 07:07 31.73608 -81.47653 36183 ft 448 kts 224°
2026-04-23 07:07 31.68959 -81.52539 36183 ft 448 kts 224°
2026-04-23 07:08 31.64309 -81.57421 36181 ft 448 kts 224°
2026-04-23 07:08 31.59687 -81.62267 36192 ft 447 kts 224°
2026-04-23 07:09 31.55029 -81.67146 36194 ft 447 kts 224°
2026-04-23 07:09 31.50413 -81.71974 36197 ft 447 kts 224°
2026-04-23 07:10 31.45773 -81.76821 36197 ft 447 kts 224°
2026-04-23 07:10 31.41004 -81.81503 36184 ft 449 kts 216°
2026-04-23 07:11 31.35408 -81.84745 36200 ft 451 kts 205°
2026-04-23 07:12 31.26680 -81.88939 36190 ft 451 kts 205°
2026-04-23 07:12 31.20888 -81.91769 36182 ft 451 kts 205°
2026-04-23 07:13 31.15128 -81.94613 36182 ft 451 kts 205°
2026-04-23 07:13 31.09337 -81.97477 36181 ft 451 kts 205°
2026-04-23 07:14 31.03551 -82.00333 36193 ft 451 kts 205°
2026-04-23 07:14 30.97768 -82.03181 36203 ft 451 kts 205°
2026-04-23 07:15 30.92009 -82.06014 36224 ft 451 kts 205°
2026-04-23 07:15 30.87200 -82.08377 36241 ft 451 kts 205°
2026-04-23 07:16 30.81441 -82.11204 36269 ft 450 kts 205°
2026-04-23 07:16 30.74700 -82.14508 36279 ft 450 kts 205°
2026-04-23 07:17 30.69894 -82.16861 36288 ft 449 kts 205°
2026-04-23 07:17 30.64104 -82.19655 36285 ft 450 kts 201°
2026-04-23 07:17 30.61071 -82.20398 36315 ft 453 kts 188°
2026-04-23 07:18 30.57926 -82.20745 36307 ft 454 kts 187°
2026-04-23 07:18 30.51635 -82.21322 36306 ft 454 kts 187°
2026-04-23 07:19 30.45349 -82.21964 36292 ft 454 kts 188°
2026-04-23 07:19 30.39056 -82.22667 36286 ft 454 kts 188°
2026-04-23 07:20 30.32804 -82.23378 36279 ft 454 kts 188°
2026-04-23 07:20 30.26510 -82.24090 36261 ft 454 kts 188°
2026-04-23 07:21 30.20220 -82.24799 36245 ft 454 kts 188°
2026-04-23 07:21 30.13916 -82.25258 36240 ft 457 kts 179°
2026-04-23 07:22 30.07609 -82.24450 36243 ft 457 kts 175°
2026-04-23 07:22 30.01327 -82.23490 36239 ft 457 kts 175°
2026-04-23 07:23 29.94996 -82.22613 36219 ft 456 kts 176°
2026-04-23 07:23 29.88715 -82.21800 36205 ft 456 kts 176°
2026-04-23 07:24 29.82398 -82.20993 36201 ft 456 kts 176°
2026-04-23 07:24 29.76118 -82.20189 36194 ft 455 kts 176°
2026-04-23 07:25 29.69808 -82.19379 36193 ft 455 kts 176°
2026-04-23 07:25 29.63536 -82.18575 36193 ft 454 kts 177°
2026-04-23 07:26 29.57279 -82.17775 36178 ft 450 kts 177°
2026-04-23 07:26 29.51106 -82.16995 36190 ft 444 kts 177°
2026-04-23 07:27 29.44960 -82.16224 35866 ft 446 kts 177°
2026-04-23 07:27 29.41902 -82.15839 35552 ft 439 kts 178°
2026-04-23 07:27 29.38858 -82.15456 35143 ft 436 kts 178°
2026-04-23 07:27 29.35876 -82.15080 34769 ft 433 kts 178°
2026-04-23 07:28 29.32878 -82.14703 34374 ft 431 kts 178°
2026-04-23 07:28 29.29908 -82.14330 33961 ft 428 kts 178°
2026-04-23 07:28 29.26957 -82.13960 33519 ft 426 kts 178°
2026-04-23 07:28 29.24014 -82.13591 33113 ft 423 kts 179°
2026-04-23 07:29 29.21129 -82.13230 32717 ft 420 kts 179°
2026-04-23 07:29 29.18219 -82.12865 32330 ft 417 kts 179°
2026-04-23 07:29 29.15370 -82.12589 32002 ft 410 kts 183°
2026-04-23 07:29 29.12536 -82.12488 31677 ft 405 kts 185°
2026-04-23 07:30 29.09713 -82.12458 31307 ft 402 kts 186°
2026-04-23 07:30 29.06921 -82.12444 30940 ft 400 kts 186°
2026-04-23 07:30 29.04169 -82.12421 30584 ft 398 kts 186°
2026-04-23 07:30 29.01403 -82.12386 30214 ft 396 kts 186°
2026-04-23 07:31 28.98623 -82.12340 29784 ft 395 kts 186°
2026-04-23 07:31 28.95926 -82.12288 29384 ft 392 kts 186°
2026-04-23 07:31 28.93197 -82.12232 28985 ft 389 kts 185°
2026-04-23 07:31 28.90499 -82.12175 28595 ft 387 kts 185°
2026-04-23 07:32 28.87802 -82.12118 28215 ft 384 kts 185°
2026-04-23 07:32 28.85160 -82.12063 27841 ft 381 kts 185°
2026-04-23 07:32 28.82508 -82.12007 27484 ft 379 kts 185°
2026-04-23 07:32 28.79903 -82.11953 27120 ft 376 kts 185°
2026-04-23 07:33 28.77302 -82.11900 26762 ft 374 kts 185°
2026-04-23 07:33 28.74688 -82.11846 26402 ft 372 kts 184°
2026-04-23 07:33 28.72129 -82.11793 26046 ft 370 kts 184°
2026-04-23 07:33 28.69549 -82.11739 25689 ft 368 kts 184°
2026-04-23 07:34 28.66968 -82.11644 25305 ft 369 kts 181°
2026-04-23 07:34 28.64415 -82.11335 24850 ft 373 kts 177°
2026-04-23 07:34 28.61835 -82.10927 24464 ft 373 kts 176°
2026-04-23 07:34 28.59285 -82.10514 24108 ft 372 kts 176°
2026-04-23 07:35 28.56708 -82.10113 23724 ft 372 kts 177°
2026-04-23 07:35 28.54147 -82.09735 23318 ft 370 kts 177°
2026-04-23 07:35 28.51592 -82.09368 22921 ft 368 kts 178°
2026-04-23 07:35 28.49059 -82.09006 22547 ft 365 kts 177°
2026-04-23 07:36 28.46580 -82.08523 22149 ft 367 kts 172°
2026-04-23 07:36 28.44079 -82.07876 21780 ft 368 kts 171°
2026-04-23 07:36 28.41527 -82.07180 21438 ft 388 kts 171°
2026-04-23 07:36 28.38838 -82.06458 21027 ft 415 kts 171°
2026-04-23 07:37 28.36002 -82.05710 20611 ft 420 kts 171°
2026-04-23 07:37 28.33151 -82.04971 20174 ft 417 kts 171°
2026-04-23 07:37 28.30322 -82.04245 19767 ft 413 kts 171°
2026-04-23 07:37 28.27546 -82.03635 19373 ft 408 kts 175°
2026-04-23 07:38 28.24740 -82.03224 18966 ft 404 kts 177°
2026-04-23 07:38 28.21977 -82.02876 18573 ft 401 kts 177°
2026-04-23 07:38 28.19215 -82.02505 18123 ft 398 kts 176°
2026-04-23 07:38 28.16478 -82.02108 17707 ft 393 kts 175°
2026-04-23 07:39 28.13761 -82.01733 17300 ft 386 kts 180°
2026-04-23 07:39 28.11158 -82.02042 16806 ft 377 kts 199°
2026-04-23 07:39 28.08776 -82.03194 16335 ft 370 kts 210°
2026-04-23 07:39 28.06525 -82.04572 15955 ft 365 kts 211°
2026-04-23 07:40 28.04305 -82.05972 15536 ft 362 kts 211°
2026-04-23 07:40 28.02132 -82.07336 15173 ft 357 kts 211°
2026-04-23 07:40 27.99953 -82.08695 14801 ft 354 kts 211°
2026-04-23 07:40 27.97808 -82.10023 14429 ft 351 kts 210°
2026-04-23 07:41 27.95684 -82.11329 14069 ft 349 kts 210°
2026-04-23 07:41 27.93555 -82.12633 13686 ft 346 kts 210°
2026-04-23 07:41 27.91442 -82.13924 13281 ft 345 kts 210°
2026-04-23 07:41 27.89329 -82.15209 12919 ft 344 kts 210°
2026-04-23 07:42 27.87231 -82.16488 12524 ft 342 kts 210°
2026-04-23 07:42 27.85137 -82.17762 12182 ft 338 kts 210°
2026-04-23 07:42 27.83096 -82.19007 11842 ft 335 kts 210°
2026-04-23 07:42 27.81050 -82.20253 11463 ft 329 kts 210°
2026-04-23 07:43 27.79038 -82.21458 11133 ft 323 kts 210°
2026-04-23 07:43 27.77115 -82.22656 10761 ft 315 kts 215°
2026-04-23 07:43 27.75423 -82.24193 10375 ft 307 kts 224°
2026-04-23 07:43 27.73871 -82.25771 10190 ft 298 kts 224°
2026-04-23 07:44 27.72352 -82.27314 10012 ft 287 kts 224°
2026-04-23 07:44 27.70876 -82.28801 9736 ft 287 kts 223°
2026-04-23 07:44 27.69361 -82.30309 9431 ft 289 kts 223°
2026-04-23 07:44 27.67837 -82.31816 9130 ft 290 kts 223°
2026-04-23 07:45 27.66332 -82.33301 8861 ft 287 kts 223°
2026-04-23 07:45 27.64840 -82.34771 8505 ft 282 kts 223°
2026-04-23 07:45 27.63378 -82.36215 8258 ft 275 kts 222°
2026-04-23 07:45 27.61973 -82.37638 7933 ft 271 kts 229°
2026-04-23 07:46 27.61092 -82.39487 7689 ft 270 kts 256°
2026-04-23 07:46 27.60873 -82.41581 7375 ft 272 kts 269°
2026-04-23 07:46 27.60820 -82.43719 6974 ft 270 kts 270°
2026-04-23 07:46 27.60785 -82.45831 6400 ft 272 kts 270°
2026-04-23 07:47 27.60746 -82.47965 5925 ft 269 kts 270°
2026-04-23 07:47 27.60702 -82.49999 5818 ft 252 kts 270°
2026-04-23 07:47 27.60655 -82.51951 5598 ft 243 kts 269°
2026-04-23 07:47 27.60609 -82.53823 5194 ft 241 kts 269°
2026-04-23 07:48 27.60560 -82.55726 4789 ft 240 kts 269°
2026-04-23 07:48 27.60509 -82.57614 4307 ft 241 kts 268°
2026-04-23 07:48 27.60458 -82.59486 3881 ft 240 kts 267°
2026-04-23 07:48 27.60405 -82.61370 3436 ft 240 kts 266°
2026-04-23 07:49 27.60352 -82.63258 3072 ft 238 kts 266°
2026-04-23 07:49 27.60303 -82.65060 2958 ft 227 kts 266°
2026-04-23 07:49 27.60259 -82.66796 2768 ft 217 kts 261°
2026-04-23 07:49 27.59961 -82.68448 2412 ft 214 kts 253°
2026-04-23 07:50 27.59629 -82.70100 2063 ft 214 kts 254°
2026-04-23 07:50 27.59312 -82.71729 2022 ft 219 kts 254°
2026-04-23 07:50 27.58910 -82.73380 1992 ft 214 kts 239°
2026-04-23 07:50 27.57936 -82.74533 1988 ft 199 kts 201°
2026-04-23 07:51 27.56626 -82.74650 1999 ft 194 kts 158°
2026-04-23 07:51 27.55548 -82.73766 2007 ft 192 kts 137°
2026-04-23 07:51 27.54582 -82.72747 2007 ft 193 kts 136°
2026-04-23 07:51 27.53620 -82.71684 1997 ft 193 kts 135°
2026-04-23 07:52 27.52668 -82.70601 1996 ft 193 kts 136°
2026-04-23 07:52 27.51754 -82.69551 1991 ft 184 kts 136°
2026-04-23 07:52 27.50879 -82.68545 1977 ft 174 kts 136°
2026-04-23 07:52 27.50012 -82.67550 1993 ft 182 kts 135°
2026-04-23 07:53 27.49123 -82.66530 1961 ft 180 kts 136°
2026-04-23 07:53 27.48287 -82.65567 1971 ft 162 kts 135°
2026-04-23 07:53 27.47530 -82.64695 2023 ft 152 kts 135°
2026-04-23 07:53 27.46792 -82.63847 1889 ft 152 kts 135°
2026-04-23 07:54 27.46056 -82.63001 1691 ft 147 kts 134°
2026-04-23 07:54 27.45346 -82.62182 1450 ft 145 kts 134°
2026-04-23 07:54 27.44654 -82.61385 1270 ft 140 kts 134°
2026-04-23 07:54 27.43976 -82.60616 1110 ft 137 kts 134°
2026-04-23 07:55 27.43310 -82.59839 934 ft 139 kts 133°
2026-04-23 07:55 27.42628 -82.59054 765 ft 145 kts 133°
2026-04-23 07:55 27.41905 -82.58225 544 ft 151 kts 133°
2026-04-23 07:55 27.41165 -82.57376 314 ft 151 kts 132°
2026-04-23 07:56 27.40450 -82.56548 116 ft 147 kts 133°
2026-04-23 07:56 27.39752 -82.55750 29 ft 128 kts 134°
2026-04-23 07:56 27.39274 -82.55204 27 ft 67 kts 134°
2026-04-23 07:56 27.39066 -82.54966 28 ft 33 kts 134°
2026-04-23 07:57 27.38957 -82.54841 29 ft 10 kts 134°
2026-04-23 07:57 27.38911 -82.54817 30 ft 7 kts 188°
2026-04-23 07:57 27.38874 -82.54853 29 ft 7 kts 225°
2026-04-23 07:57 27.38840 -82.54891 30 ft 7 kts 225°
2026-04-23 07:58 27.38808 -82.54931 30 ft 7 kts 241°
2026-04-23 07:58 27.38803 -82.54981 30 ft 6 kts 269°
2026-04-23 07:58 27.38807 -82.55025 30 ft 6 kts 282°
2026-04-23 07:58 27.38820 -82.55066 29 ft 5 kts 290°
2026-04-23 07:59 27.38833 -82.55106 30 ft 5 kts 290°
2026-04-23 07:59 27.38842 -82.55134 30 ft 1 kts 290°
2026-04-23 07:59 27.38845 -82.55143 30 ft 1 kts 290°
2026-04-23 07:59 27.38848 -82.55151 30 ft 1 kts 290°
2026-04-23 08:00 27.38851 -82.55159 30 ft 1 kts 290°
2026-04-23 08:00 27.38855 -82.55170 30 ft 3 kts 300°
2026-04-23 08:00 27.38880 -82.55198 30 ft 6 kts 315°
2026-04-23 08:00 27.38910 -82.55232 30 ft 6 kts 311°
2026-04-23 08:01 27.38921 -82.55273 30 ft 3 kts 277°
2026-04-23 08:01 27.38923 -82.55295 30 ft 3 kts 277°
2026-04-23 08:01 27.38925 -82.55312 30 ft 1 kts 277°
2026-04-23 08:01 27.38926 -82.55315 30 ft 0 kts 277°